This demonstration page uses our WeatherBlox Daily Observations layout. Learn more.

38.80484, -77.04692

Hourly Observations for April 1, 2019

Temp ( °F °C ) Dew Point ( °F °C ) Humidity (%) Winds ( mph kmh ) Pressure ( in mb ) Visibility ( mi km ) Precip ( " mm )
12:52 am 00:52 Partly Cloudy 36 2.2 11 -11.7 35 35 NW 13 20 30.19 1022 10 16.0934 0 0
1:52 am 01:52 Partly Cloudy 35 1.7 11 -11.7 37 37 NW 18 30 30.22 1023 10 16.0934 0 0
2:52 am 02:52 Mostly Clear 35 1.7 12 -11.1 38 38 NW 21 33 30.21 1023 10 16.0934 0 0
3:52 am 03:52 Mostly Clear 34 1.1 12 -11.1 40 40 NNW 16 26 30.22 1024 10 16.0934 0 0
4:52 am 04:52 Clear 34 1.1 13 -10.6 42 42 NNW 14 22 30.23 1024 10 16.0934 0 0
5:52 am 05:52 Clear 34 1.1 15 -9.4 46 46 NNW 15 24 30.25 1024 10 16.0934 0 0
6:52 am 06:52 Mostly Clear 34 1.1 15 -9.4 46 46 NW 13 20 30.27 1025 10 16.0934 0 0
7:52 am 07:52 Mostly Sunny 36 2.2 18 -7.8 48 48 NW 15 24 30.3 1026 10 16.0934 0 0
8:52 am 08:52 Mostly Sunny 38 3.3 19 -7.2 46 46 NNW 16 26 30.33 1027 10 16.0934 0 0
9:52 am 09:52 Mostly Sunny 40 4.4 18 -7.8 41 41 NW 20 31 30.35 1028 10 16.0934 0 0
10:52 am 10:52 Mostly Sunny 42 5.6 18 -7.8 38 38 NW 14 22 30.37 1028 10 16.0934 0 0
11:52 am 11:52 Sunny 44 6.7 17 -8.3 34 34 NNW 18 30 30.35 1028 10 16.0934 0 0
12:52 pm 12:52 Sunny 46 7.8 15 -9.4 29 29 NW 13 20 30.34 1027 10 16.0934 0 0
1:52 pm 13:52 Mostly Sunny 47 8.3 15 -9.4 28 28 NNW 15 24 30.33 1027 10 16.0934 0 0
2:52 pm 14:52 Mostly Sunny 49 9.4 14 -10 25 25 NW 8 13 30.32 1027 10 16.0934 0 0
3:52 pm 15:52 Mostly Sunny 49 9.4 12 -11.1 22 22 VRB 3 6 30.32 1027 10 16.0934 0 0
4:52 pm 16:52 Partly Cloudy 51 10.6 13 -10.6 22 22 N 9 15 30.31 1027 10 16.0934 0 0
5:52 pm 17:52 Partly Cloudy 50 10 14 -10 24 24 N 10 17 30.32 1027 10 16.0934 0 0
6:52 pm 18:52 Partly Cloudy 48 8.9 12 -11.1 23 23 N 7 11 30.32 1027 10 16.0934 0 0
7:52 pm 19:52 Partly Cloudy 46 7.8 12 -11.1 25 25 N 6 9 30.33 1027 10 16.0934 0 0
8:52 pm 20:52 Partly Cloudy 47 8.3 12 -11.1 24 24 NNE 3 6 30.36 1028 10 16.0934 0 0
9:52 pm 21:52 Partly Cloudy 45 7.2 18 -7.8 34 34 ESE 10 17 30.37 1029 10 16.0934 0 0
10:52 pm 22:52 Mostly Cloudy 43 6.1 22 -5.6 43 43 SE 8 13 30.37 1029 10 16.0934 0 0
11:52 pm 23:52 Mostly Cloudy 41 5 22 -5.6 47 47 S 6 9 30.37 1029 10 16.0934 0 0

Powered by AerisWeather